Total_Precipitation_Accumulation
1.86 1.76 1.39 0.93 0.87 1.05 1.09 0.79 0.59 0.81 1.26 1.32 1.56 1.47 1.14 1.41 1.47 1.16 1.60 1.57 1.53 2.08 1.93 2.35 2.14 1.42 1.05 1.30 1.17 0.87 0.71 1.26 1.04 1.54 1.31 1.18 1.08 1.10 1.39 0.99 0.89 1.22 1.50 2.11 1.08 1.10 1.04 1.11 0.82 0.90 1.17 1.00 0.86 1.02 1.14 0.58 0.69 1.04 1.00 0.98 1.22 0.64 1.30 1.16 1.43 0.89 0.27 0.19 0.54 0.51 0.74 0.94 0.61 0.48 0.52 0.36 0.37 0.32 0.38 0.33 0.49 1.49 1.02 0.81 0.44
2.51 2.64 2.01 2.31 1.79 2.70 1.58 1.88 1.11 0.44 0.48 1.36 1.64 2.03 2.18 2.57 1.42 0.70 1.37 2.00 1.63 1.33 0.98 1.34 1.02 1.20 0.99 0.83 1.09 1.33 1.29 1.25 1.42 1.30 1.79 1.26 1.00 1.28 0.78 0.74 0.83 1.33 1.37 0.84 0.79 0.73 1.03 1.02 0.69 0.83 0.95 0.94 1.20 1.17 0.74 0.88 0.85 1.22 0.74 0.58 1.14 0.92 0.99 1.60 1.19 1.33 0.81 0.44 0.42 0.51 0.78 0.49 0.34 0.30 0.57 0.69 0.58 0.44 0.64 0.79 0.47 0.45 0.47 0.81 1.04
2.81 1.91 2.47 1.81 1.87 1.60 1.69 1.53 1.25 1.18 0.99 1.35 1.86 2.79 2.25 1.73 1.83 1.33 1.52 1.80 1.39 1.08 0.90 0.90 1.04 1.05 1.32 1.83 2.23 1.96 1.77 1.51 1.31 1.46 1.03 1.09 1.06 1.60 0.91 1.15 1.11 0.98 0.84 0.81 0.84 1.27 0.99 0.77 0.84 0.77 1.80 1.31 1.36 0.98 1.02 1.22 1.09 1.20 0.85 0.95 1.19 0.79 0.83 1.35 1.75 1.31 0.85 0.75 0.52 0.49 0.42 0.39 0.45 0.31 0.32 0.34 0.47 0.45 0.42 0.44 0.53 0.59 0.57 0.69 1.09
1.83 1.92 2.45 2.00 2.01 1.32 1.36 0.79 0.81 0.50 0.47 0.72 1.60 2.62 2.05 1.69 0.99 0.85 1.22 1.69 1.31 1.03 0.67 0.61 1.03 0.97 1.36 1.24 1.35 1.74 1.79 1.74 1.68 1.42 1.02 0.98 1.55 1.80 1.79 1.37 1.10 1.05 0.84 0.76 0.91 0.88 0.70 0.72 0.97 1.14 0.89 1.55 1.99 1.04 1.12 1.27 1.36 1.20 1.00 1.59 0.95 1.07 0.83 1.08 1.14 1.28 0.88 0.90 0.30 0.43 0.40 0.49 0.24 0.33 0.58 0.69 0.38 0.27 0.25 0.49 0.40 0.64 0.42 0.97 1.39
2.00 2.49 2.15 1.82 1.75 1.65 1.32 1.20 0.67 0.96 1.04 1.02 1.41 1.43 1.61 1.32 0.90 0.83 0.96 1.18 1.19 0.88 0.94 0.87 1.17 1.48 1.75 1.33 1.46 1.34 1.49 1.61 1.62 1.45 1.44 1.29 1.25 1.29 1.68 1.11 1.07 0.80 0.88 1.07 0.80 0.95 1.05 1.34 1.26 1.48 1.31 1.45 1.70 1.16 1.10 1.38 1.02 1.12 1.13 1.08 1.01 1.37 1.00 1.27 1.33 1.52 1.45 1.01 0.46 0.46 0.69 0.62 0.75 0.58 0.33 0.42 0.56 0.77 0.93 1.55 0.67 0.38 0.34 0.78 0.79
2.57 1.91 2.06 2.54 2.32 2.00 1.77 1.59 1.43 0.99 0.76 1.08 1.64 1.70 1.80 1.35 1.25 0.75 0.58 1.02 1.11 0.54 0.77 0.91 0.63 0.68 0.71 0.79 0.87 1.17 1.49 1.58 1.52 1.11 1.37 1.54 2.09 1.39 1.39 1.19 0.76 0.77 0.87 1.01 1.17 0.97 0.89 0.86 0.82 0.96 1.09 1.23 1.48 1.50 1.87 1.93 1.69 1.51 1.71 1.49 1.44 1.46 1.33 1.35 1.89 1.33 1.88 1.64 1.03 0.64 0.57 0.73 0.76 0.92 0.68 0.88 1.33 0.82 0.58 0.48 1.01 0.96 1.88 1.48 1.19
2.06 2.09 2.08 1.93 2.39 1.87 1.42 1.10 1.40 1.20 1.37 1.37 1.49 1.77 1.70 1.20 0.84 0.46 0.56 0.69 0.79 0.80 1.01 1.15 0.92 0.74 0.98 1.12 1.39 1.28 1.26 1.54 1.54 1.25 1.55 1.50 1.41 1.30 1.31 1.42 0.92 0.92 0.54 0.64 0.80 0.85 0.94 1.25 1.50 1.31 1.17 1.02 1.05 0.99 1.47 1.23 1.24 1.33 1.51 1.39 1.51 2.28 2.16 1.57 1.24 1.59 1.50 1.13 1.04 0.76 0.83 0.94 0.78 0.84 0.68 0.78 0.80 0.72 0.71 0.37 0.38 0.59 0.53 0.55 1.24
2.11 2.33 2.23 2.18 1.91 2.08 2.29 1.96 2.15 1.44 1.31 1.47 1.61 1.95 1.96 1.59 1.62 1.65 1.34 0.99 0.83 1.07 1.18 0.74 0.95 0.77 0.75 0.88 0.80 1.25 1.06 1.33 1.38 1.40 1.51 1.29 1.31 1.28 1.29 1.21 0.90 0.97 1.11 0.77 0.83 1.07 1.15 1.08 0.94 1.10 0.90 1.01 1.44 1.44 1.11 0.95 1.02 1.19 1.25 1.56 1.85 2.34 2.02 2.10 2.00 1.47 1.51 1.44 1.41 1.11 0.81 0.84 1.26 0.97 1.29 1.09 1.23 1.21 0.71 0.65 0.51 0.37 0.53 0.76 0.51
3.19 2.08 1.98 2.64 2.97 3.17 3.01 2.77 2.35 1.54 1.27 1.24 1.32 1.99 1.75 1.78 1.79 1.97 1.79 1.62 1.36 1.31 1.37 1.02 0.68 1.00 0.80 0.96 0.88 1.00 1.65 1.73 1.32 1.35 1.73 1.15 1.03 0.92 0.92 0.99 0.95 1.05 0.99 0.91 0.71 0.79 0.70 0.93 0.81 0.64 0.99 0.70 0.93 1.52 1.73 1.48 1.92 1.48 1.21 1.18 1.35 1.80 2.18 2.38 2.50 2.28 2.77 2.66 1.80 1.76 1.61 1.17 0.90 1.05 1.03 0.74 0.93 0.53 0.74 1.11 1.05 0.68 0.81 0.80 0.69
1.90 2.57 2.96 2.51 2.43 2.59 2.40 2.27 1.84 1.30 1.09 0.90 0.64 0.95 1.49 0.81 1.04 1.47 1.24 1.01 0.75 1.10 1.28 1.46 1.31 1.00 0.92 0.86 0.85 1.64 1.69 2.51 1.87 1.83 1.41 1.22 1.11 0.96 0.88 0.82 0.70 0.69 0.76 0.91 1.12 1.32 1.13 0.85 0.68 0.52 0.62 0.69 0.83 0.77 1.41 1.73 1.32 1.56 2.37 2.15 1.62 1.71 1.85 2.21 2.30 2.52 2.39 2.35 1.84 1.95 2.25 1.09 0.98 0.96 0.94 0.87 0.96 1.26 1.07 1.18 1.05 0.75 0.78 1.01 1.16
2.60 3.04 3.68 2.83 2.88 2.24 1.85 1.28 1.58 1.34 0.96 1.01 0.89 0.78 1.28 1.29 1.46 1.02 1.26 1.09 1.08 1.21 0.78 0.83 0.87 1.17 0.87 1.04 1.40 1.54 1.45 1.52 1.99 1.28 1.25 1.16 1.36 1.49 1.23 1.13 0.95 0.58 0.66 0.75 0.74 0.72 1.29 1.28 1.14 1.18 1.14 0.66 0.43 0.41 0.53 0.70 0.57 0.75 1.11 1.36 1.80 2.27 2.81 2.88 1.80 2.11 2.05 2.08 1.62 1.96 1.49 1.31 0.97 0.70 0.89 0.83 1.06 1.02 1.18 1.11 1.14 1.32 1.30 1.38 1.09
2.50 2.42 2.24 3.00 3.46 3.06 2.64 2.20 2.09 1.94 1.33 1.05 1.76 1.40 1.43 1.83 1.37 1.06 1.17 1.02 1.25 1.04 1.04 0.93 0.98 1.07 1.14 1.26 1.40 1.51 1.94 1.58 1.54 1.65 1.76 1.45 1.40 1.65 1.36 1.13 1.13 1.03 1.05 1.09 1.13 0.84 1.02 1.08 1.17 1.07 0.86 0.92 0.96 0.76 0.80 0.60 0.65 0.78 0.77 0.76 0.64 0.69 1.39 1.95 2.03 2.07 1.81 1.79 2.50 1.79 1.46 1.61 1.25 0.96 0.91 1.06 0.99 1.17 0.92 1.06 1.32 1.54 1.52 1.28 1.05
2.77 2.80 3.18 3.23 3.34 3.09 2.85 2.34 2.75 2.06 2.16 1.18 1.60 3.74 2.81 2.14 1.79 1.30 0.97 0.90 1.23 1.17 0.61 0.88 1.37 1.28 1.11 1.26 1.88 1.85 2.12 1.99 1.58 1.94 1.62 1.84 1.38 1.09 1.30 1.61 1.67 1.47 1.35 1.50 1.11 0.96 0.90 1.11 1.27 0.99 1.21 0.93 0.96 0.97 1.52 1.42 1.86 1.64 0.79 0.96 1.07 0.92 0.90 0.94 0.98 1.76 2.51 1.98 2.18 1.72 1.60 1.48 1.59 1.11 1.07 1.09 1.17 1.49 1.40 1.50 1.25 1.44 1.50 1.75 1.21
1.89 1.98 2.56 2.31 2.35 2.65 2.58 3.11 2.63 2.58 2.14 1.90 2.24 1.93 1.73 1.80 2.55 1.91 1.84 1.83 1.25 1.46 1.63 1.35 1.12 1.48 1.32 1.11 1.08 1.63 2.19 2.35 1.73 1.65 1.36 1.45 1.53 1.42 1.49 1.44 1.37 1.28 1.30 1.14 1.12 1.33 1.44 1.45 1.52 1.75 1.24 1.18 1.22 1.40 1.40 1.27 1.52 2.56 2.60 1.89 1.71 1.79 1.69 1.41 1.11 1.02 1.49 2.03 2.18 1.94 2.17 1.71 2.03 1.38 1.09 1.14 1.50 1.75 1.67 1.56 1.54 1.47 1.53 1.50 1.87
1.41 1.38 1.91 2.40 1.99 1.89 2.20 2.44 3.10 2.49 2.46 2.25 2.58 3.01 1.78 2.38 1.89 1.58 1.94 1.59 1.82 2.17 1.81 1.91 1.90 1.70 2.20 1.36 1.43 1.98 2.28 1.31 2.01 1.73 1.61 1.32 1.04 1.04 1.38 1.73 1.49 1.53 1.58 1.47 1.74 1.44 1.46 1.38 1.28 1.64 1.44 1.40 1.25 1.30 1.21 1.36 1.50 1.45 2.09 2.38 2.14 1.68 1.90 1.97 2.15 2.30 2.24 2.16 1.69 1.46 1.76 1.81 1.36 1.35 1.90 1.54 1.55 1.60 1.60 1.86 2.28 2.52 2.16 2.53 2.29
1.53 1.41 1.44 1.60 1.89 2.29 2.51 2.38 2.53 2.89 2.36 2.50 2.55 2.39 2.37 2.61 2.01 2.60 2.01 1.97 2.37 1.90 1.56 1.49 1.33 1.53 1.80 2.20 1.65 1.37 1.69 0.97 0.94 1.15 1.64 1.89 1.60 1.37 1.15 1.16 1.37 1.38 1.22 1.28 1.24 1.42 1.59 1.44 1.29 0.90 0.92 1.06 0.84 0.88 1.11 1.49 1.76 1.45 1.46 1.41 1.96 1.79 3.11 2.72 1.54 1.73 1.75 1.93 1.90 1.40 1.31 1.39 1.23 1.78 1.93 2.16 2.01 2.47 2.33 1.82 1.88 2.28 2.53 2.66 2.34
2.00 2.21 1.89 1.64 1.78 1.60 2.18 2.13 3.04 2.60 2.81 1.84 2.00 2.32 2.76 2.27 2.21 2.12 2.48 2.99 2.42 2.36 2.29 2.20 1.97 1.74 2.48 1.87 1.53 1.62 1.47 1.20 1.42 1.35 1.47 1.89 2.30 1.94 2.06 2.75 2.88 2.39 2.14 2.07 1.84 1.42 1.61 1.74 1.64 1.85 1.99 1.25 1.10 0.87 0.77 1.29 1.61 1.23 1.28 1.29 1.39 1.33 1.54 1.39 1.42 1.46 1.67 2.17 2.22 1.89 1.20 1.73 1.94 1.79 2.02 2.17 2.94 2.89 3.80 3.39 2.94 2.33 3.30 3.05 1.98
1.41 1.87 2.08 2.30 2.50 2.01 2.13 2.44 1.67 2.16 2.78 2.65 1.94 1.82 2.30 2.25 2.48 2.63 2.45 2.22 1.91 2.29 1.79 2.14 2.58 2.00 1.92 1.93 1.91 1.66 2.05 1.53 0.97 0.96 0.79 0.77 1.17 1.38 1.82 2.01 1.94 2.39 2.20 1.94 1.88 1.98 2.00 2.28 2.31 2.24 2.10 1.76 1.04 1.04 1.65 2.42 2.12 1.57 1.55 1.70 2.21 2.60 2.02 1.47 1.36 2.18 1.13 1.52 2.16 2.92 1.99 1.85 1.88 1.83 2.04 2.36 2.26 3.29 4.01 3.38 2.28 2.37 2.91 2.86 2.16
1.57 1.91 1.79 2.39 2.36 2.41 2.81 3.04 2.49 2.16 2.65 2.52 2.06 1.71 1.47 1.58 1.90 2.08 1.91 2.05 2.86 3.38 3.31 2.29 1.69 1.84 2.03 2.26 1.90 1.50 1.85 1.44 0.83 0.75 0.73 0.70 1.24 1.21 1.11 1.23 1.40 1.45 1.44 1.35 1.64 1.93 2.19 2.23 2.21 2.33 2.30 2.08 1.96 1.75 1.10 1.68 2.48 1.96 2.24 2.01 2.06 1.60 1.87 1.93 2.28 2.36 1.90 1.73 2.20 2.74 2.92 2.30 2.71 2.50 2.55 1.94 1.97 2.32 3.24 2.90 2.80 3.89 3.48 2.66 2.39
0.72 1.15 1.41 1.79 2.46 2.22 1.98 2.84 3.15 3.54 4.07 4.22 3.65 3.43 3.05 2.36 1.75 2.09 2.49 2.43 3.09 3.17 2.21 2.58 2.08 1.54 1.55 1.07 0.97 1.07 0.79 0.87 0.75 0.66 0.73 0.68 0.91 1.73 1.77 1.10 0.91 1.00 1.27 1.42 1.11 1.16 1.49 2.01 2.14 1.52 1.32 1.34 1.61 1.52 1.65 2.37 4.00 2.65 2.25 3.20 2.89 2.29 1.60 1.80 2.24 2.50 2.24 2.49 2.16 1.93 2.58 2.50 2.35 2.05 2.29 3.57 2.75 3.38 3.01 2.66 2.79 2.96 3.29 3.36 3.94
0.76 0.62 0.72 0.89 1.40 1.92 1.99 2.13 2.13 2.18 2.80 4.09 3.17 2.56 2.72 2.92 2.64 2.51 3.49 3.54 2.76 2.97 2.87 2.22 1.56 1.87 1.85 1.90 1.70 2.32 2.03 1.78 1.63 0.87 1.11 0.88 0.84 1.12 1.82 1.56 1.61 1.62 1.20 1.34 1.18 0.97 1.36 0.99 1.19 1.08 1.30 1.16 1.29 2.02 2.02 1.92 1.93 3.36 2.25 2.24 2.50 2.99 2.11 2.00 2.20 2.22 3.42 3.34 2.72 2.67 2.61 2.48 2.38 2.40 2.49 2.07 2.38 2.38 2.49 2.68 3.35 2.99 3.25 4.15 3.55
0.22 0.30 0.43 0.62 0.89 1.36 2.06 3.18 2.57 2.89 3.11 3.41 2.57 2.08 2.30 2.76 2.57 3.31 3.21 2.42 2.79 2.87 2.65 2.51 2.92 2.14 1.80 1.76 1.66 2.12 1.92 1.76 2.61 1.90 1.55 1.39 1.03 1.41 2.32 1.32 1.11 1.40 1.21 1.35 0.90 0.77 0.77 0.91 1.06 0.98 0.92 0.87 1.11 1.06 1.29 1.12 1.82 5.19 3.10 1.76 1.88 2.15 2.70 2.43 3.22 3.68 3.13 3.02 2.45 2.55 2.87 2.73 2.00 2.41 2.31 2.54 2.62 2.30 2.71 3.09 3.65 4.48 4.62 5.50 4.93
0.20 0.25 0.27 0.43 0.93 1.02 0.89 2.06 2.32 2.93 2.60 2.04 1.95 2.57 2.54 2.46 2.14 2.19 2.14 2.17 2.07 2.35 2.24 1.89 1.70 1.65 1.77 1.75 1.77 1.75 1.75 2.07 1.73 2.05 1.87 1.74 1.66 1.72 1.22 1.46 1.21 1.98 1.09 1.56 0.92 1.04 1.15 1.24 1.66 1.59 1.11 0.77 0.91 0.93 2.27 2.45 2.68 3.44 2.62 2.57 2.08 2.39 3.50 3.80 3.43 3.68 3.48 2.41 2.37 2.39 2.38 2.34 2.23 2.33 2.68 3.32 3.78 4.46 4.83 5.21 5.51 5.47 4.24 4.44 5.08
0.62 0.92 0.92 0.94 0.85 1.16 1.36 1.29 1.05 1.31 2.02 3.40 2.62 1.85 1.96 2.35 1.97 2.39 2.49 2.38 2.12 1.74 1.73 1.73 1.77 1.80 1.99 1.86 1.71 1.78 1.76 1.89 1.94 2.02 2.10 1.86 1.73 1.32 1.40 1.18 1.31 2.16 2.19 2.01 1.58 1.72 1.78 2.20 1.74 1.40 1.49 1.57 2.07 1.51 1.90 2.30 2.34 1.80 2.30 2.93 2.59 2.90 5.48 4.19 3.37 2.59 2.66 2.66 2.72 2.26 2.24 2.35 2.92 2.93 3.03 3.52 4.38 5.43 4.90 3.93 3.93 3.51 3.97 4.06 3.87
0.94 0.84 0.78 0.81 0.66 0.69 0.89 0.87 0.96 0.65 0.76 1.37 2.48 1.82 2.37 2.78 2.87 2.65 2.22 2.16 2.10 2.16 2.18 1.84 1.84 1.89 1.55 1.64 1.65 2.10 2.16 2.78 2.78 2.08 1.94 1.45 1.42 1.31 1.22 1.86 2.31 1.84 2.14 1.84 1.51 2.19 2.63 2.28 3.08 3.17 2.07 1.44 1.13 1.41 2.21 1.75 1.32 1.53 1.96 3.59 4.61 5.43 3.37 3.05 3.51 3.28 3.08 2.98 2.88 2.77 2.74 3.21 3.93 4.06 3.72 4.24 5.20 4.73 4.69 4.08 4.19 3.77 4.17 3.81 4.17
1.07 0.92 1.23 1.15 1.10 1.62 1.34 0.91 0.54 0.93 1.19 1.15 2.35 2.15 1.75 2.63 2.52 2.53 2.44 2.38 2.29 2.28 2.66 2.47 2.37 2.16 2.18 2.28 1.75 1.86 1.99 2.05 1.89 1.79 1.94 2.02 3.19 2.24 1.73 1.58 2.07 2.64 2.23 3.06 2.37 1.77 1.52 1.62 1.70 1.94 1.59 1.91 3.26 3.53 2.57 2.37 2.23 2.53 2.17 2.02 2.38 2.63 2.75 2.31 2.30 2.50 2.60 2.69 3.09 3.14 3.55 3.26 4.03 4.60 3.83 4.28 3.58 3.39 3.59 4.13 4.52 4.46 3.88 4.19 4.42
1.41 1.33 1.37 1.36 1.59 1.88 1.80 1.72 2.04 1.78 1.21 1.77 1.91 2.83 1.89 1.92 1.84 2.17 1.78 1.91 2.08 1.98 1.75 1.93 1.81 1.70 1.97 2.08 2.20 2.10 1.68 1.89 1.78 2.53 3.65 2.46 2.08 2.25 2.36 2.57 2.01 2.47 3.65 2.93 2.25 3.08 2.73 2.94 3.22 3.15 3.13 2.52 3.05 2.80 3.23 2.72 2.73 2.64 2.55 2.44 2.67 2.95 3.14 2.93 2.82 2.81 3.42 3.21 2.66 2.57 2.67 2.71 2.52 2.54 3.11 3.44 4.25 4.57 3.49 3.89 3.85 4.30 3.61 4.40 5.23
1.58 1.35 1.70 1.44 1.35 1.39 1.85 1.10 1.04 1.13 1.26 1.30 1.68 2.59 1.58 1.70 1.96 1.90 1.88 1.79 1.58 1.69 1.50 1.56 1.69 1.78 2.01 2.89 2.64 1.79 1.74 1.67 1.69 1.79 1.75 1.74 2.79 2.50 2.95 2.74 3.05 2.68 2.54 2.50 2.57 2.36 2.50 2.52 2.06 2.71 2.44 2.79 2.57 2.42 2.29 2.08 1.86 2.00 2.37 2.68 2.69 2.86 3.14 3.23 3.52 2.78 2.60 2.89 2.93 2.41 2.27 2.18 2.31 3.09 3.11 2.93 3.03 3.26 2.98 3.09 3.31 3.63 4.03 3.98 4.30
1.07 1.45 1.88 1.71 1.76 1.81 1.84 2.14 1.76 1.21 0.87 1.18 1.56 1.93 2.33 0.97 1.16 1.71 2.26 3.42 2.75 2.77 1.97 1.37 1.20 1.23 1.72 2.04 2.09 1.73 1.73 1.72 1.50 2.37 2.36 2.04 4.06 4.13 2.96 2.76 2.50 2.39 2.02 2.15 2.12 2.38 2.27 2.10 2.13 2.03 2.31 2.03 1.98 2.22 2.47 2.12 2.38 2.61 2.67 2.84 3.16 2.90 2.63 2.81 3.18 2.77 2.75 2.58 2.77 2.79 2.94 2.82 2.90 2.96 2.96 2.50 2.64 2.53 2.83 2.96 3.39 3.67 3.90 4.55 4.39
2.05 1.66 1.32 1.28 1.16 1.49 1.55 1.62 0.93 0.82 0.86 1.13 1.01 1.28 1.03 0.98 1.34 1.13 1.55 1.86 0.87 0.68 1.12 2.07 1.73 1.76 1.26 1.23 1.72 1.84 1.50 2.49 2.53 2.64 2.40 1.94 2.03 2.62 3.26 3.50 3.23 3.68 2.74 2.36 3.48 3.26 2.24 2.10 2.32 1.95 2.05 2.22 1.93 2.08 2.40 2.43 2.41 2.72 2.56 2.37 2.35 2.72 3.08 2.79 2.86 3.00 2.74 2.94 2.66 2.70 2.69 2.53 2.34 2.48 2.56 2.81 3.01 2.81 2.88 2.52 3.42 3.25 3.53 3.83 3.69
3.30 2.54 1.99 1.68 1.85 2.09 1.84 1.38 1.44 1.90 1.40 1.91 1.76 0.77 0.83 1.03 1.20 1.43 0.82 1.71 2.00 1.41 1.12 1.66 1.22 0.98 1.54 1.84 2.39 1.85 1.17 1.59 1.18 1.80 1.96 2.64 2.84 2.11 2.26 2.32 2.64 2.61 3.10 4.09 4.23 2.95 3.04 2.46 2.15 2.04 2.31 2.03 2.37 2.62 3.09 3.13 3.45 3.18 3.41 3.39 3.09 2.93 2.43 2.75 3.15 3.23 2.88 2.37 2.68 2.87 2.33 2.60 2.70 2.26 2.46 2.38 2.78 2.73 2.71 2.80 2.68 2.41 2.55 2.58 2.89
3.89 3.27 2.80 2.02 1.98 2.25 1.74 1.97 1.94 1.40 1.33 1.45 1.62 1.64 1.28 1.42 1.54 1.20 1.28 1.69 1.86 1.33 1.31 0.93 1.31 1.66 1.51 1.90 1.53 2.53 1.48 0.76 0.83 0.94 1.06 1.28 1.37 1.80 1.70 1.59 1.94 2.38 2.48 3.16 3.60 3.61 2.94 2.48 2.37 2.37 2.20 2.07 2.14 1.81 2.17 2.08 2.38 2.57 2.84 3.05 3.43 3.39 3.25 3.21 2.93 2.62 2.74 2.62 2.83 2.96 2.92 2.49 3.03 3.00 2.70 2.56 2.35 2.59 2.50 2.65 2.95 2.44 2.39 2.28 2.51
2.89 3.84 4.03 3.43 3.46 3.01 1.58 1.91 2.67 3.06 2.77 1.96 1.53 1.47 1.69 1.58 2.01 1.92 2.48 2.30 2.20 2.14 2.05 1.62 1.61 2.58 2.52 2.16 2.17 1.52 2.08 1.33 1.00 1.46 1.37 1.10 1.22 1.63 1.90 1.56 2.13 2.68 3.71 4.51 4.26 3.43 3.13 3.26 2.94 3.03 2.70 2.72 2.44 2.39 2.29 2.17 2.15 2.53 2.70 2.68 2.62 3.09 2.73 2.90 2.51 2.70 2.74 3.03 2.81 2.50 2.44 2.70 2.74 2.29 2.15 2.32 2.46 2.96 2.38 2.26 2.27 2.36 2.46 2.53 2.46
2.47 2.63 3.16 2.55 1.43 2.13 2.54 1.81 2.06 2.26 2.65 2.80 2.81 2.43 2.32 2.34 2.56 2.25 3.58 2.71 3.08 2.74 2.28 1.79 1.45 1.32 1.36 1.43 1.39 2.04 1.71 0.71 0.95 0.77 0.86 1.12 1.57 1.89 2.01 2.91 1.88 2.35 2.73 2.54 2.96 2.72 2.53 3.25 2.70 2.77 2.87 2.66 2.80 2.70 2.41 2.60 2.55 2.44 2.25 2.48 2.28 2.30 2.14 2.05 2.45 2.53 2.32 2.24 2.42 2.26 2.24 2.63 1.97 1.88 2.14 2.28 2.25 2.25 2.33 2.25 2.36 2.38 2.45 2.37 2.20
2.23 2.41 1.84 2.33 3.44 2.48 2.29 2.03 2.14 2.52 2.22 2.17 1.81 1.75 1.75 2.02 2.38 1.87 1.85 2.75 3.58 4.14 4.73 3.48 2.64 2.57 2.42 1.83 1.22 1.47 1.83 1.52 1.06 0.86 1.18 1.36 1.49 1.55 1.47 1.84 2.85 2.35 2.19 2.70 2.72 2.78 2.67 2.08 2.07 2.18 2.24 2.18 2.34 2.31 2.36 2.33 2.21 2.03 2.19 2.26 2.47 2.36 2.32 2.38 2.59 2.39 2.26 2.35 2.37 2.22 2.29 2.36 2.43 2.43 2.17 1.82 1.90 1.92 1.90 1.90 2.01 1.93 2.10 1.85 2.18
1.61 1.39 1.10 1.85 2.43 2.79 2.91 2.54 2.75 2.76 3.11 3.21 2.20 1.99 1.59 1.62 2.12 2.74 2.95 3.55 2.41 2.27 2.59 3.05 3.42 2.99 2.31 2.38 1.99 2.04 2.15 2.52 2.03 1.55 1.45 1.45 1.90 1.94 2.69 2.58 1.71 1.51 1.83 2.20 2.15 1.78 1.31 1.56 2.10 2.12 2.10 2.01 2.04 2.35 2.07 2.12 1.75 1.58 1.66 1.82 1.92 1.88 1.73 1.66 1.71 1.81 1.96 2.14 2.12 1.86 1.90 1.94 1.64 1.87 1.89 1.98 1.81 1.63 1.59 1.39 1.45 1.62 1.68 1.96 1.75
2.28 2.41 2.71 2.34 2.21 2.31 2.46 2.30 2.66 2.45 1.90 2.00 1.73 1.47 1.88 1.90 1.85 1.46 0.97 0.90 1.23 1.79 1.81 1.83 1.64 2.03 1.80 1.99 1.77 1.52 1.85 2.32 1.84 1.91 1.86 1.74 1.37 1.77 2.10 1.53 1.83 1.47 1.33 1.71 1.68 1.66 1.81 1.93 1.84 1.87 1.88 1.78 1.49 1.38 1.35 1.35 1.41 1.46 1.48 1.23 1.11 1.01 1.18 1.25 1.41 1.24 1.28 1.46 1.33 1.29 1.26 1.27 1.20 1.29 1.38 1.27 1.14 1.06 1.35 1.32 1.43 1.27 1.27 1.45 1.22
1.46 1.92 1.92 1.61 1.50 1.91 1.53 1.94 2.25 1.68 1.46 1.39 1.34 1.74 1.65 1.59 1.59 1.70 1.38 1.50 1.11 1.24 1.77 1.87 1.60 1.74 1.56 2.04 1.77 1.83 2.00 1.21 1.24 1.08 1.06 1.38 1.93 1.45 1.27 1.50 1.50 1.26 1.28 1.34 1.52 1.68 2.07 2.10 2.03 1.83 1.58 1.78 1.55 1.39 1.44 1.41 1.10 1.07 0.82 0.92 0.70 0.67 0.79 0.99 0.87 1.01 0.97 1.00 1.08 1.10 1.09 1.06 0.96 1.31 0.96 0.95 1.16 0.90 1.00 0.87 0.86 0.90 0.87 0.88 1.06
1.78 1.35 1.26 1.40 1.20 1.20 1.23 1.14 1.35 1.85 1.69 1.65 1.82 1.61 1.50 1.42 1.31 1.33 1.62 1.59 1.61 1.75 1.93 1.39 1.49 1.32 1.54 1.53 1.02 1.12 1.19 1.46 1.38 0.95 0.83 1.10 1.19 1.45 1.37 1.13 1.32 1.64 1.32 1.58 1.41 1.37 1.25 1.40 1.31 1.56 1.41 1.33 1.08 1.12 0.96 0.83 0.84 0.84 0.82 0.76 0.77 0.77 0.71 0.72 0.70 0.68 0.62 0.75 0.80 0.84 0.84 0.83 0.79 0.71 0.72 0.80 0.83 0.69 0.69 0.70 0.78 0.84 0.97 0.79 0.87
1.11 1.42 1.41 1.19 1.33 1.26 1.62 1.31 1.09 1.11 1.05 1.37 1.76 1.68 1.57 1.48 1.63 1.42 1.53 1.19 1.15 1.22 1.33 1.54 1.48 1.59 1.91 1.34 1.17 1.16 1.22 1.35 1.57 2.06 1.62 1.17 1.03 1.07 1.35 1.27 1.22 1.42 1.53 1.66 1.47 1.58 1.38 1.30 1.46 1.66 1.53 1.44 1.40 1.23 1.15 1.05 1.13 0.86 0.95 0.82 0.90 0.99 0.87 0.78 1.00 0.75 0.71 0.64 0.65 0.75 0.65 0.82 0.83 0.80 0.76 0.63 0.81 1.04 0.83 0.78 0.67 0.72 0.75 0.83 0.74
1.46 1.11 0.99 0.96 1.06 1.27 1.39 1.55 1.43 1.28 1.19 1.23 1.50 1.44 1.80 1.47 1.76 2.02 1.76 1.39 1.34 1.27 1.23 1.42 1.57 1.62 1.41 1.52 1.16 1.31 1.52 1.22 1.65 1.51 1.56 1.61 1.97 2.22 1.79 1.90 1.69 1.58 1.39 1.33 1.37 1.35 1.54 1.80 1.95 1.87 1.68 1.65 1.47 1.19 1.04 1.07 1.05 0.90 0.87 0.85 0.77 0.82 0.81 0.87 0.89 0.87 0.88 0.83 0.69 0.67 0.70 0.66 0.71 0.81 0.86 0.84 0.76 0.84 0.91 0.91 0.85 0.91 0.87 0.85 0.82
1.22 1.68 2.20 2.54 2.42 1.48 1.39 1.37 1.62 1.55 1.50 1.18 1.29 1.50 1.28 1.53 1.33 1.26 1.44 1.47 1.29 1.62 1.75 1.91 2.12 1.68 1.46 1.52 1.48 1.60 1.60 1.47 1.08 1.08 1.32 1.33 1.69 1.96 2.30 2.22 1.98 1.72 1.79 1.86 1.51 1.54 1.71 1.90 2.16 2.06 1.82 1.91 1.57 1.34 1.18 0.98 0.98 1.05 1.05 1.03 0.93 0.93 0.86 0.94 0.98 0.93 0.81 0.84 0.87 0.90 0.87 0.87 0.86 0.91 0.83 0.91 0.93 0.95 0.99 1.02 0.97 0.91 0.98 0.97 0.91
0.66 1.06 1.75 1.69 2.06 1.83 1.50 1.39 1.41 1.93 1.35 1.37 1.20 1.23 1.19 1.38 1.50 1.45 1.22 1.47 1.35 1.25 1.59 1.69 1.53 1.48 1.99 1.84 1.77 1.69 1.80 1.72 1.56 1.59 1.53 1.43 1.54 1.49 1.48 1.50 1.85 1.71 1.66 1.82 1.85 1.90 1.94 2.27 2.30 2.06 1.79 1.53 1.42 1.12 1.10 1.12 1.17 1.16 1.18 1.08 1.11 1.12 1.15 1.04 0.94 0.87 0.77 0.75 0.68 0.68 0.66 0.61 0.67 0.73 0.64 0.65 0.75 0.82 0.79 0.73 0.77 0.79 0.77 0.82 0.84
0.70 0.82 0.88 0.96 0.96 1.43 1.39 1.14 1.27 1.05 0.97 0.93 1.06 1.06 1.12 1.41 1.23 1.18 1.55 1.32 1.38 1.39 1.36 1.38 1.79 1.52 1.69 1.41 1.40 1.58 1.64 1.67 1.76 1.78 1.73 1.44 1.55 1.71 1.65 1.67 1.74 1.63 1.48 1.52 1.45 1.71 1.90 1.95 2.18 1.95 1.88 1.90 1.73 1.56 1.44 1.42 1.59 1.48 1.42 1.33 1.35 1.26 1.13 0.97 0.87 0.86 0.84 0.85 0.71 0.65 0.59 0.59 0.54 0.51 0.48 0.47 0.51 0.59 0.69 0.73 0.70 0.70 0.73 0.76 0.79
0.55 0.61 0.69 0.79 0.79 1.08 1.03 1.25 1.19 1.06 0.99 0.94 0.80 0.74 0.96 0.89 1.02 0.94 1.04 1.59 1.38 1.25 1.54 1.48 1.62 1.62 1.45 1.27 1.20 1.44 1.48 1.54 1.28 1.37 1.35 1.44 1.42 1.50 1.51 1.62 1.61 1.55 1.53 1.53 1.70 1.77 1.90 1.92 1.96 1.96 1.88 1.83 1.77 1.75 1.83 1.62 1.63 1.60 1.37 1.30 1.25 1.20 1.15 1.18 1.08 1.02 1.01 0.98 0.87 0.75 0.66 0.62 0.61 0.57 0.54 0.49 0.51 0.55 0.55 0.60 0.72 0.78 0.79 0.82 0.91
0.65 0.45 0.30 0.40 0.52 0.79 0.98 1.05 1.13 1.13 1.13 1.08 1.07 1.01 0.94 0.85 0.80 0.86 0.97 1.19 1.39 1.39 1.59 1.23 1.44 1.50 1.50 1.22 1.10 1.06 1.18 1.20 1.34 1.22 1.25 1.26 1.24 1.30 1.30 1.34 1.40 1.57 1.75 1.72 1.73 1.92 2.04 2.10 2.03 1.94 1.86 1.69 1.38 1.24 1.17 1.13 1.00 1.04 1.16 1.13 1.06 1.08 1.15 1.15 1.11 1.03 0.97 1.00 0.88 0.80 0.72 0.66 0.62 0.64 0.61 0.55 0.52 0.52 0.45 0.46 0.53 0.64 0.77 0.79 0.79
0.46 0.31 0.23 0.21 0.48 0.62 0.66 0.57 0.86 1.37 1.27 1.58 1.42 1.42 1.49 1.45 1.27 1.08 1.02 1.10 0.87 0.90 0.84 0.89 1.02 1.16 1.09 1.16 1.50 1.07 1.01 1.12 1.10 1.12 1.10 1.15 1.14 1.19 1.16 1.17 1.25 1.39 1.39 1.60 1.75 2.05 2.18 1.91 1.66 1.40 1.24 1.15 1.11 1.14 1.10 1.12 1.07 0.94 0.85 0.87 0.95 0.91 0.91 0.92 1.11 1.19 0.87 0.80 0.77 0.76 0.74 0.70 0.66 0.66 0.66 0.64 0.64 0.60 0.55 0.54 0.57 0.59 0.69 0.81 0.85
0.44 0.27 0.30 0.30 0.22 0.47 0.85 1.07 1.24 0.61 0.89 0.80 1.07 1.04 0.98 0.95 1.12 1.14 1.14 1.27 1.37 1.16 1.10 0.91 1.00 1.10 1.13 0.99 1.35 1.35 1.34 1.27 1.07 1.28 1.16 1.13 1.07 1.09 1.05 1.13 1.12 1.23 1.38 1.75 1.90 1.73 1.59 1.39 1.14 1.05 1.17 1.03 0.98 0.96 0.87 0.81 0.76 0.81 0.81 0.78 0.88 0.93 0.97 0.80 0.75 0.74 0.72 0.73 0.72 0.68 0.66 0.66 0.69 0.68 0.68 0.66 0.66 0.67 0.63 0.65 0.67 0.64 0.65 0.70 0.73
0.85 0.86 0.72 0.83 0.93 1.22 0.76 0.57 0.58 0.63 0.71 0.85 1.07 0.82 1.02 1.01 1.18 1.03 1.17 1.25 1.12 1.44 1.25 1.24 1.15 1.02 0.82 0.75 0.80 0.77 0.88 0.92 1.00 1.11 1.22 1.24 1.10 1.00 0.95 1.05 1.17 1.10 1.14 1.30 1.33 1.26 1.08 1.00 0.86 0.83 0.80 0.70 0.64 0.70 0.72 0.77 0.76 0.68 0.60 0.70 0.62 0.57 0.58 0.60 0.65 0.74 0.69 0.65 0.63 0.59 0.59 0.60 0.63 0.63 0.62 0.66 0.62 0.58 0.57 0.61 0.62 0.60 0.58 0.62 0.65
0.19 0.15 0.14 0.12 0.17 0.21 0.22 0.25 0.22 0.40 0.33 0.40 0.36 0.34 0.29 0.32 0.49 0.57 0.68 0.68 0.71 0.73 0.77 0.73 0.69 0.74 0.80 0.81 0.75 0.79 0.77 0.82 0.99 0.93 0.96 1.00 1.15 1.19 1.26 1.10 1.15 1.16 1.10 1.13 1.02 0.91 0.73 0.67 0.64 0.57 0.53 0.51 0.50 0.51 0.52 0.47 0.47 0.44 0.46 0.44 0.44 0.42 0.42 0.40 0.39 0.40 0.42 0.48 0.51 0.54 0.58 0.60 0.61 0.60 0.59 0.59 0.61 0.66 0.58 0.55 0.55 0.55 0.55 0.57 0.63
0.23 0.16 0.17 0.14 0.13 0.21 0.17 0.28 0.16 0.17 0.25 0.23 0.32 0.30 0.30 0.33 0.48 0.44 0.49 0.45 0.62 0.45 0.40 0.44 0.42 0.44 0.53 0.68 0.65 0.67 0.80 0.79 0.84 0.88 0.84 0.87 1.06 1.04 1.13 1.11 1.13 1.16 1.03 0.78 0.73 0.70 0.65 0.66 0.58 0.51 0.49 0.39 0.37 0.39 0.42 0.36 0.34 0.39 0.46 0.43 0.39 0.35 0.33 0.31 0.31 0.31 0.31 0.32 0.33 0.34 0.37 0.39 0.45 0.50 0.51 0.52 0.53 0.53 0.51 0.48 0.51 0.53 0.55 0.54 0.57